LA3SP-1 Weather Reports


Display with metric or nautical units.
time (UTC)temp
F
wind
direction
speed
MPH
gust
MPH
rain 1hr
in
rain 24hr
in
rain mn
in
humidity
%
barometer
mb
20260507113749 43 270 0.0 0.0 0.00 0.00 0.00 45 1012.0
20260507111747 45 270 2.0 0.0 0.00 0.00 0.00 45 1011.9
20260507110746 44 247 1.0 0.0 0.00 0.00 0.00 45 1011.9
20260507105744 43 270 0.0 0.0 0.00 0.00 0.00 45 1011.8
20260507104743 42 315 0.0 0.0 0.00 0.00 0.00 46 1011.7
20260507103741 42 270 4.0 0.0 0.00 0.00 0.00 46 1011.6
20260507102740 43 292 6.0 0.0 0.00 0.00 0.00 46 1011.5
20260507100737 41 270 1.0 0.0 0.00 0.00 0.00 48 1011.5
20260507095736 41 315 0.0 0.0 0.00 0.00 0.00 48 1011.5
20260507094734 42 270 3.0 0.0 0.00 0.00 0.00 48 1011.3
20260507093733 41 270 0.0 0.0 0.00 0.00 0.00 49 1011.3
20260507091731 41 247 0.0 0.0 0.00 0.00 0.00 51 1011.2
20260507085728 41 247 0.0 0.0 0.00 0.00 0.00 52 1011.1
20260507083725 39 247 0.0 0.0 0.00 0.00 0.00 55 1011.1
20260507082723 38 315 2.0 0.0 0.00 0.00 0.00 55 1010.8
20260507081722 38 292 4.0 0.0 0.00 0.00 0.00 55 1010.8
20260507075719 35 292 3.0 0.0 0.00 0.00 0.00 59 1010.6
20260507074718 33 292 0.0 0.0 0.00 0.00 0.00 60 1010.6
20260507073716 32 292 0.0 0.0 0.00 0.00 0.00 62 1010.5
20260507072715 32 247 1.0 0.0 0.00 0.00 0.00 63 1010.6
20260507071713 31 247 0.0 0.0 0.00 0.00 0.00 65 1010.6
20260507065711 29 292 2.0 0.0 0.00 0.00 0.00 69 1010.3
20260507064710 28 292 0.0 0.0 0.00 0.00 0.00 69 1010.4
20260507062707 26 292 0.0 0.0 0.00 0.00 0.00 71 1010.1
20260507061705 26 292 0.0 0.0 0.00 0.00 0.00 71 1010.0
20260507054701 23 292 0.0 0.0 0.00 0.00 0.00 73 1010.0
20260507053723 22 292 0.0 0.0 0.00 0.00 0.00 74 1010.0
20260507053700 23 292 0.0 0.0 0.00 0.00 0.00 74 1010.0
20260507052700 22 292 0.0 0.0 0.00 0.00 0.00 74 1010.0
20260507041649 21 292 0.0 0.0 0.00 0.00 0.00 73 1009.5
20260507033643 21 292 0.0 0.0 0.00 0.00 0.00 72 1009.5
20260507032642 22 292 0.0 0.0 0.00 0.00 0.00 71 1009.4
20260507030639 22 292 2.0 0.0 0.00 0.00 0.00 72 1009.3
20260507025638 22 270 3.0 0.0 0.00 0.00 0.00 72 1009.2
20260507023635 21 292 2.0 0.0 0.00 0.00 0.00 74 1009.1
20260507022634 21 292 1.0 0.0 0.00 0.00 0.00 73 1009.2
20260507015629 21 315 3.0 0.0 0.00 0.00 0.00 74 1009.0
20260507014628 21 292 2.0 0.0 0.00 0.00 0.00 73 1009.1
20260507012625 22 292 1.0 0.0 0.00 0.00 0.00 72 1009.0
20260507011624 22 292 0.0 0.0 0.00 0.00 0.00 71 1009.0
20260507010622 23 292 3.0 0.0 0.00 0.00 0.00 71 1009.1
20260507004620 24 292 0.0 0.0 0.00 0.00 0.00 70 1009.0
20260507003619 24 292 0.0 0.0 0.00 0.00 0.00 70 1009.0
20260507001616 24 292 2.0 0.0 0.00 0.00 0.00 70 1008.8
20260507000614 24 292 0.0 0.0 0.00 0.00 0.00 70 1008.7
20260506233610 24 292 3.0 0.0 0.00 0.00 0.00 70 1008.6
20260506232609 24 292 4.0 0.0 0.00 0.00 0.00 70 1008.6
20260506231607 24 292 2.0 0.0 0.00 0.00 0.00 70 1008.6
20260506230606 24 292 2.0 0.0 0.00 0.00 0.00 70 1008.5
20260506223602 23 315 0.0 0.0 0.00 0.00 0.00 70 1008.4
20260506222601 23 315 0.0 0.0 0.00 0.00 0.00 70 1008.3
20260506221559 23 315 0.0 0.0 0.00 0.00 0.00 69 1008.4
20260506220558 24 315 0.0 0.0 0.00 0.00 0.00 69 1008.4
20260506215556 24 315 0.0 0.0 0.00 0.00 0.00 69 1008.2
20260506213554 24 315 0.0 0.0 0.00 0.00 0.00 69 1008.1
20260506212552 24 315 0.0 0.0 0.00 0.00 0.00 68 1008.2
20260506211551 24 315 0.0 0.0 0.00 0.00 0.00 68 1008.1
20260506210549 24 315 3.0 0.0 0.00 0.00 0.00 68 1008.0
20260506205548 24 315 2.0 0.0 0.00 0.00 0.00 68 1008.0
20260506202544 26 292 4.0 0.0 0.00 0.00 0.00 65 1008.0
20260506201543 27 292 1.0 0.0 0.00 0.00 0.00 64 1008.2
20260506195540 27 292 0.0 0.0 0.00 0.00 0.00 64 1008.0
20260506194538 27 292 0.0 0.0 0.00 0.00 0.00 63 1008.1
20260506192536 28 270 2.0 0.0 0.00 0.00 0.00 61 1007.8
20260506191534 28 270 0.0 0.0 0.00 0.00 0.00 61 1007.9
20260506190533 29 247 0.0 0.0 0.00 0.00 0.00 61 1008.0
20260506185531 29 202 0.0 0.0 0.00 0.00 0.00 60 1008.0
20260506185018 31 180 1.0 0.0 0.00 0.00 0.00 58 1007.8
20260506184530 30 292 8.0 0.0 0.00 0.00 0.00 60 1007.9
20260506183528 31 180 1.0 0.0 0.00 0.00 0.00 58 1007.8
20260506180525 33 157 1.0 0.0 0.00 0.00 0.00 55 1007.3
20260506175523 34 112 2.0 0.0 0.00 0.00 0.00 54 1007.3
20260506174522 34 135 2.0 0.0 0.00 0.00 0.00 54 1007.3
20260506173520 35 90 4.0 0.0 0.00 0.00 0.00 53 1007.2
20260506170516 36 67 3.0 0.0 0.00 0.00 0.00 53 1007.1
20260506165515 36 135 0.0 0.0 0.00 0.00 0.00 53 1007.0
20260506164514 36 157 4.0 0.0 0.00 0.00 0.00 53 1007.0
20260506163512 37 292 10.0 0.0 0.00 0.00 0.00 52 1007.1
20260506162511 37 180 4.0 0.0 0.00 0.00 0.00 52 1007.0
20260506161509 37 180 0.0 0.0 0.00 0.00 0.00 52 1007.2
20260506160449 39 157 0.0 0.0 0.00 0.00 0.00 53 1007.3
20260506155507 38 135 5.0 0.0 0.00 0.00 0.00 52 1007.2
20260506154505 38 270 3.0 0.0 0.00 0.00 0.00 52 1007.1
20260506153504 39 157 0.0 0.0 0.00 0.00 0.00 53 1007.3
20260506152753 38 247 0.0 0.0 0.00 0.00 0.00 50 1007.0
20260506151501 38 202 4.0 0.0 0.00 0.00 0.00 50 1007.1
20260506150500 38 247 0.0 0.0 0.00 0.00 0.00 50 1007.0
20260506145459 40 247 6.0 0.0 0.00 0.00 0.00 47 1007.0
20260506144457 40 247 5.0 0.0 0.00 0.00 0.00 47 1007.2
20260506143456 41 247 0.0 0.0 0.00 0.00 0.00 46 1007.2
20260506142454 41 270 3.0 0.0 0.00 0.00 0.00 46 1007.2
20260506141453 41 270 4.0 0.0 0.00 0.00 0.00 45 1007.3
20260506135450 41 247 1.0 0.0 0.00 0.00 0.00 41 1007.1
20260506134449 41 292 5.0 0.0 0.00 0.00 0.00 41 1007.2
20260506133447 43 270 0.0 0.0 0.00 0.00 0.00 41 1007.0
20260506132446 46 247 6.0 0.0 0.00 0.00 0.00 40 1007.2
20260506131444 47 157 0.0 0.0 0.00 0.00 0.00 44 1007.1
20260506130443 46 225 3.0 0.0 0.00 0.00 0.00 45 1007.2
20260506125441 43 135 4.0 0.0 0.00 0.00 0.00 46 1007.1
20260506123439 40 292 4.0 0.0 0.00 0.00 0.00 44 1007.1
20260506122438 42 270 5.0 0.0 0.00 0.00 0.00 42 1007.2
20260506121436 46 157 1.0 0.0 0.00 0.00 0.00 42 1007.2
20260506120435 45 180 3.0 0.0 0.00 0.00 0.00 43 1007.1
20260506114432 44 270 0.0 0.0 0.00 0.00 0.00 44 1007.1